MISAWA(JASDF/AF/NV) current weather conditions

sailwx.info

Wind from 270 at 8 knots

Air temperature -3.0° C
Visibility: greater than 5.4 NM
Dewpoint -8.0° C

Last reported at 2020-Jan-25 12:00 UTC.
Time now 2020-Jan-25 13:24 UTC

Location: N 40°42' E 141°23'.
View on Google Maps.

See reports from other nearby stations

  
Tides and Currents Weather Stations Pressure Air Temp Water Temp Dewpoint Dewpoint Depression Visibility Wind Speed Wind Dir Waves Ship Positions
date/time (UTC)wind fromknots sea level pressurealtimeterstation pressurevisibilityair tempwater tempwave heightnotes
2020-Jan-25 13:00 270 9 5.4-3.0
2020-Jan-25 12:00 270 8 5.4-3.0
2020-Jan-25 11:00 270 9 5.4-2.0
2020-Jan-25 10:00 270 11 5.4-2.0 Light snow showers.
2020-Jan-25 09:00 260 8 5.4-2.0 Light snow showers.
2020-Jan-25 08:00 290 11 5.4-2.0 Light snow showers.
2020-Jan-25 07:00 280 13 5.4-1.0 Light snow showers.
2020-Jan-25 06:00 280 14 5.4-1.0 Light snow showers.
2020-Jan-25 05:00 290 21 5.4-1.0 Light snow showers.
2020-Jan-25 04:00 280 14 5.4-1.0 Light snow showers.
2020-Jan-25 03:00 290 19 5.4-0.0 Light snow showers.
2020-Jan-25 02:00 280 18 5.4-1.0 Light snow showers.
2020-Jan-25 01:00 280 14 5.4-1.0 Light snow showers.
2020-Jan-25 00:00 300 13 5.4-2.0 Light snow showers.
2020-Jan-24 23:00 270 8 5.4-3.0 Light snow showers.
2020-Jan-24 22:00 280 12 5.4-3.0 Light snow showers.
2020-Jan-24 21:00 290 13 5.4-3.0 Light snow showers.
2020-Jan-24 20:00 270 8 5.4-3.0
2020-Jan-24 19:00 280 8 5.4-3.0 Light snow showers.
2020-Jan-24 18:00 290 6 5.4-3.0 Light snow showers.
2020-Jan-24 17:00 280 12 5.4-3.0 Light snow showers.
2020-Jan-24 16:00 290 13 5.4-3.0 Light snow showers.
2020-Jan-24 15:00 290 13 5.4-3.0 Light snow showers.
2020-Jan-24 14:00 300 14 5.4-3.0 Light snow showers.
2020-Jan-24 13:00 290 13 5.4-3.0 Light snow showers.
2020-Jan-24 12:00 290 12 5.4-2.0 Light snow showers.
2020-Jan-24 11:00 270 12 gusting 21 3.8-3.0 Light snow showers.
2020-Jan-24 10:00 280 15 5.4-2.0 Light snow showers.
2020-Jan-24 09:00 280 18 gusting 27 5.4-2.0 Light snow showers.
2020-Jan-24 08:00 280 19 gusting 31 5.4-1.0 Light snow showers.
2020-Jan-24 07:00 270 14 gusting 29 5.4-0.0 Light snow showers.
2020-Jan-24 06:00 290 15 5.4-0.0
2020-Jan-24 05:00 290 25 gusting 35 5.4-0.0
2020-Jan-24 04:00 290 20 5.4 1.0 Light snow showers.
2020-Jan-24 03:00 310 9 5.4 2.0 Light rain showers.
2020-Jan-24 02:00 290 14 5.4 3.0 Light rain showers.
2020-Jan-24 01:00 290 6 5.4 5.0
2020-Jan-24 00:00 200 4 5.4 3.0
2020-Jan-23 23:00 220 5 5.4 2.0
2020-Jan-23 22:00 260 2 5.4 1.0
2020-Jan-23 21:00 300 6 5.4-0.0
2020-Jan-23 20:00 280 4 5.4-0.0
2020-Jan-23 19:00 210 5 5.4-0.0
2020-Jan-23 18:00 5.4-1.0
2020-Jan-23 17:00 230 4 5.4-2.0
2020-Jan-23 16:00 5.4-2.0
2020-Jan-23 15:00 260 1 5.4-2.0
2020-Jan-23 14:00 220 4 5.4-0.0
2020-Jan-23 13:00 280 4 5.4-1.0